Location: *
(44.1392°N, 4.8079°E)
Time: 08:36:21
(UTC+00:00)

SJ 16-02 - Pass Details

Date: 21 June 2021
Orbit: 606 x 616 km, 75.0° (Epoch: 02 August)

Event Time Altitude Azimuth Distance (km) Brightness Sun altitude
Rises 00:49:27 0° 322° (NW) 2,871 5.3 -20.7°
Reaches altitude 10° 00:52:36 10° 297° (WNW) 1,960 4.0 -20.5°
Enters shadow 00:54:34 14° 271° (W) 1,700 3.4 -20.4°
